• En España
  • Lista de países
  • Para 7 días
  • Temperatura del agua
  • Mapa Satelital
  • El tiempo en el mapa
  • Informadores
  • user-avatar
    Iniciar sesión

    Tiempo cada hora Tavira

    Hoy, 21 Noviembre, Martes

    Tiempo Temperatura Precipitaciones Viento Presión Humedad
    00:00 +13°C° 0 mm 2 mps 764 mmHg 58%
    01:00 +13°C° 0 mm 2 mps 763 mmHg 60%
    02:00 +12°C° 0 mm 2 mps 763 mmHg 62%
    03:00 +11°C° 0 mm 3 mps 763 mmHg 62%
    04:00 +11°C° 0 mm 3 mps 763 mmHg 63%
    05:00 +11°C° 0 mm 3 mps 763 mmHg 63%
    06:00 +12°C° 0 mm 3 mps 763 mmHg 57%
    07:00 +14°C° 0 mm 3 mps 763 mmHg 51%
    08:00 +17°C° 0 mm 3 mps 763 mmHg 45%
    09:00 +19°C° 0 mm 4 mps 763 mmHg 40%
    10:00 +21°C° 0 mm 4 mps 763 mmHg 35%
    11:00 +23°C° 0 mm 4 mps 763 mmHg 31%
    12:00 +24°C° 0 mm 3 mps 762 mmHg 30%
    13:00 +24°C° 0 mm 3 mps 762 mmHg 30%
    14:00 +25°C° 0 mm 3 mps 762 mmHg 30%
    15:00 +21°C° 0 mm 2 mps 762 mmHg 38%
    16:00 +19°C° 0 mm 2 mps 762 mmHg 47%
    17:00 +16°C° 0 mm 1 mps 762 mmHg 55%
    18:00 +16°C° 0 mm 1 mps 762 mmHg 59%
    19:00 +15°C° 0 mm 1 mps 762 mmHg 63%
    20:00 +14°C° 0 mm 1 mps 762 mmHg 66%
    21:00 +14°C° 0 mm 1 mps 762 mmHg 66%
    22:00 +14°C° 0 mm 2 mps 762 mmHg 66%
    23:00 +13°C° 0 mm 2 mps 761 mmHg 66%

    Mañana, 22 Noviembre, Miércoles

    Tiempo Temperatura Precipitaciones Viento Presión Humedad
    00:00 +13°C° 0 mm 2 mps 761 mmHg 68%
    01:00 +13°C° 0 mm 2 mps 761 mmHg 70%
    02:00 +12°C° 0 mm 3 mps 760 mmHg 72%
    03:00 +12°C° 0 mm 3 mps 760 mmHg 75%
    04:00 +12°C° 0 mm 3 mps 760 mmHg 78%
    05:00 +12°C° 0 mm 2 mps 760 mmHg 81%
    06:00 +13°C° 0 mm 3 mps 760 mmHg 76%
    07:00 +14°C° 0 mm 3 mps 760 mmHg 71%
    08:00 +16°C° 0 mm 3 mps 760 mmHg 66%
    09:00 +18°C° 0 mm 4 mps 760 mmHg 59%
    10:00 +20°C° 0 mm 4 mps 760 mmHg 52%
    11:00 +22°C° 0 mm 5 mps 760 mmHg 45%
    12:00 +22°C° 0 mm 5 mps 759 mmHg 46%
    13:00 +23°C° 0 mm 5 mps 759 mmHg 47%
    14:00 +23°C° 0 mm 5 mps 759 mmHg 48%
    15:00 +21°C° 0 mm 4 mps 759 mmHg 59%
    16:00 +19°C° 0 mm 4 mps 759 mmHg 70%
    17:00 +17°C° 0 mm 3 mps 759 mmHg 81%
    18:00 +17°C° 0 mm 3 mps 759 mmHg 84%
    19:00 +17°C° 0 mm 3 mps 760 mmHg 87%
    20:00 +17°C° 0 mm 3 mps 760 mmHg 89%
    21:00 +17°C° 0 mm 3 mps 760 mmHg 90%
    22:00 +16°C° 0 mm 3 mps 760 mmHg 91%
    23:00 +16°C° 0 mm 3 mps 760 mmHg 92%

    Pasado mañana, 23 Noviembre, Jueves

    Tiempo Temperatura Precipitaciones Viento Presión Humedad
    00:00 +16°C° 0 mm 3 mps 760 mmHg 92%
    01:00 +14°C° 0 mm 3 mps 760 mmHg 92%
    02:00 +14°C° 0 mm 3 mps 760 mmHg 92%
    03:00 +16°C° 0 mm 3 mps 760 mmHg 91%
    04:00 +16°C° 0 mm 3 mps 760 mmHg 90%
    05:00 +16°C° 0 mm 3 mps 760 mmHg 89%
    06:00 +17°C° 0 mm 4 mps 760 mmHg 84%
    07:00 +18°C° 0 mm 4 mps 761 mmHg 79%
    08:00 +18°C° 0 mm 4 mps 761 mmHg 73%
    09:00 +20°C° 0 mm 5 mps 761 mmHg 63%
    10:00 +22°C° 0 mm 6 mps 761 mmHg 53%
    11:00 +24°C° 0 mm 6 mps 761 mmHg 43%
    12:00 +24°C° 0 mm 6 mps 761 mmHg 41%
    13:00 +24°C° 0 mm 6 mps 760 mmHg 40%
    14:00 +24°C° 0 mm 6 mps 760 mmHg 38%
    15:00 +22°C° 0 mm 5 mps 760 mmHg 47%
    16:00 +20°C° 0 mm 5 mps 760 mmHg 55%
    17:00 +18°C° 0 mm 4 mps 760 mmHg 64%
    18:00 +17°C° 0 mm 4 mps 760 mmHg 67%
    19:00 +17°C° 0 mm 4 mps 761 mmHg 71%
    20:00 +15°C° 0 mm 5 mps 761 mmHg 74%
    21:00 +15°C° 0 mm 5 mps 761 mmHg 75%
    22:00 +15°C° 0 mm 5 mps 760 mmHg 76%
    23:00 +15°C° 0 mm 5 mps 760 mmHg 77%

    24 Noviembre, Viernes

    Tiempo Temperatura Precipitaciones Viento Presión Humedad
    00:00 +15°C° 0 mm 5 mps 760 mmHg 78%
    01:00 +15°C° 0 mm 5 mps 760 mmHg 78%
    02:00 +15°C° 0 mm 5 mps 760 mmHg 78%
    03:00 +15°C° 0 mm 5 mps 760 mmHg 78%
    04:00 +15°C° 0 mm 5 mps 760 mmHg 78%
    05:00 +15°C° 0 mm 5 mps 760 mmHg 77%
    06:00 +16°C° 0 mm 6 mps 760 mmHg 71%
    07:00 +17°C° 0 mm 6 mps 760 mmHg 66%
    08:00 +18°C° 0 mm 7 mps 761 mmHg 60%
    09:00 +21°C° 0 mm 7 mps 760 mmHg 53%
    10:00 +22°C° 0 mm 7 mps 760 mmHg 45%
    11:00 +24°C° 0 mm 7 mps 760 mmHg 38%
    12:00 +24°C° 0 mm 7 mps 760 mmHg 37%
    13:00 +24°C° 0 mm 7 mps 759 mmHg 36%
    14:00 +24°C° 0 mm 6 mps 759 mmHg 35%
    15:00 +23°C° 0 mm 6 mps 759 mmHg 44%
    16:00 +21°C° 0 mm 5 mps 759 mmHg 52%
    17:00 +19°C° 0 mm 5 mps 759 mmHg 61%
    18:00 +19°C° 0 mm 5 mps 760 mmHg 63%
    19:00 +19°C° 0 mm 5 mps 760 mmHg 65%
    20:00 +19°C° 0 mm 5 mps 760 mmHg 67%
    21:00 +17°C° 0 mm 5 mps 760 mmHg 70%
    22:00 +17°C° 0 mm 5 mps 760 mmHg 74%
    23:00 +16°C° 0 mm 5 mps 760 mmHg 77%

    25 Noviembre, Sábado

    Tiempo Temperatura Precipitaciones Viento Presión Humedad
    00:00 +16°C° 0 mm 5 mps 760 mmHg 78%
    01:00 +15°C° 0 mm 4 mps 760 mmHg 79%
    02:00 +15°C° 0 mm 4 mps 760 mmHg 80%
    03:00 +15°C° 0 mm 4 mps 760 mmHg 78%
    04:00 +15°C° 0 mm 4 mps 760 mmHg 76%
    05:00 +15°C° 0 mm 4 mps 760 mmHg 75%
    06:00 +17°C° 0 mm 3 mps 760 mmHg 71%
    07:00 +18°C° 0 mm 3 mps 761 mmHg 67%
    08:00 +19°C° 0 mm 3 mps 761 mmHg 63%
    09:00 +20°C° 0 mm 3 mps 761 mmHg 58%
    10:00 +21°C° 0 mm 2 mps 761 mmHg 53%
    11:00 +24°C° 0 mm 2 mps 761 mmHg 48%
    12:00 +23°C° 0,1 mm 2 mps 761 mmHg 51%
    13:00 +23°C° 0,1 mm 1 mps 761 mmHg 53%
    14:00 +23°C° 0,1 mm 1 mps 761 mmHg 56%
    15:00 +20°C° 0,3 mm 2 mps 762 mmHg 63%
    16:00 +19°C° 0,3 mm 2 mps 762 mmHg 69%
    17:00 +18°C° 0,3 mm 3 mps 763 mmHg 76%
    18:00 +18°C° 0,1 mm 4 mps 763 mmHg 77%
    19:00 +16°C° 0,1 mm 5 mps 763 mmHg 78%
    20:00 +16°C° 0,1 mm 6 mps 764 mmHg 79%
    21:00 +16°C° 0 mm 6 mps 764 mmHg 78%
    22:00 +16°C° 0 mm 6 mps 763 mmHg 78%
    23:00 +15°C° 0 mm 6 mps 763 mmHg 77%

    26 Noviembre, Domingo

    Tiempo Temperatura Precipitaciones Viento Presión Humedad
    00:00 +15°C° 0 mm 6 mps 763 mmHg 76%
    01:00 +15°C° 0 mm 6 mps 763 mmHg 75%
    02:00 +15°C° 0 mm 6 mps 763 mmHg 73%
    03:00 +15°C° 0 mm 6 mps 763 mmHg 72%
    04:00 +15°C° 0 mm 7 mps 763 mmHg 71%
    05:00 +15°C° 0 mm 7 mps 763 mmHg 69%
    06:00 +16°C° 0 mm 7 mps 763 mmHg 66%
    07:00 +16°C° 0 mm 6 mps 764 mmHg 62%
    08:00 +17°C° 0 mm 6 mps 764 mmHg 59%
    09:00 +20°C° 0 mm 6 mps 764 mmHg 53%
    10:00 +22°C° 0 mm 6 mps 764 mmHg 47%
    11:00 +24°C° 0 mm 6 mps 764 mmHg 41%
    12:00 +24°C° 0 mm 6 mps 763 mmHg 39%
    13:00 +26°C° 0 mm 6 mps 763 mmHg 37%
    14:00 +26°C° 0 mm 5 mps 762 mmHg 36%
    15:00 +23°C° 0 mm 5 mps 763 mmHg 39%
    16:00 +22°C° 0 mm 5 mps 763 mmHg 43%
    17:00 +20°C° 0 mm 5 mps 763 mmHg 47%
    18:00 +20°C° 0 mm 5 mps 763 mmHg 50%
    19:00 +19°C° 0 mm 5 mps 763 mmHg 53%
    20:00 +17°C° 0 mm 6 mps 763 mmHg 57%
    21:00 +17°C° 0 mm 6 mps 763 mmHg 58%
    22:00 +17°C° 0 mm 6 mps 763 mmHg 58%
    23:00 +16°C° 0 mm 6 mps 763 mmHg 59%
    Mostrar más